Wind_Speed
27 25 24 23 21 20 19 19 19 19 18 17 15 13 13 12 11 9 8 8 7 6 5 5 6 6 5 5 5 5 5 4 4 5 6 6 5 4 4 4 5 5
27 26 24 22 21 21 20 20 20 19 18 17 14 13 12 12 11 10 8 7 7 6 6 5 5 6 6 6 7 7 7 6 5 5 6 6 5 6 6 6 6 7
28 26 24 23 23 22 21 20 20 19 18 17 15 13 13 12 13 12 10 8 8 8 7 7 7 7 7 7 9 10 10 10 8 7 7 8 7 7 8 7 7 8
29 27 25 24 24 22 20 20 20 20 19 18 16 15 14 13 13 13 11 10 9 9 9 9 9 8 9 9 10 10 11 11 10 9 9 9 9 9 9 9 9 9
30 27 26 25 24 22 20 21 21 21 20 19 17 16 15 15 14 14 13 11 11 10 10 10 10 10 10 11 11 11 11 11 11 11 11 10 9 9 9 10 10 10
30 28 27 26 24 22 21 22 22 21 21 20 17 16 17 17 16 15 13 12 12 12 12 11 11 10 10 11 12 12 12 12 12 12 13 12 11 11 10 11 12 13
31 29 29 28 25 23 22 22 22 21 21 19 17 17 18 17 16 15 14 13 13 13 13 13 13 12 11 11 12 12 12 13 14 13 14 14 14 13 13 13 14 15
32 31 30 29 26 24 23 22 22 21 20 19 18 18 19 18 17 16 15 15 15 15 15 16 16 15 15 13 12 12 12 13 14 15 15 15 16 16 15 15 15 16
33 32 32 30 27 26 25 23 21 20 20 20 19 19 20 19 18 17 16 16 16 17 18 19 19 18 18 17 15 13 13 13 14 15 16 16 17 16 16 15 16 17
33 33 33 31 29 27 26 23 21 20 19 19 20 20 20 19 18 17 17 17 18 20 21 21 21 21 21 21 19 16 14 14 14 14 15 15 16 16 15 14 15 16
34 33 34 33 30 28 27 24 21 18 18 19 21 21 20 18 17 17 17 18 20 21 20 19 19 19 20 21 20 18 16 15 15 15 15 14 15 15 14 14 14 16
34 34 35 34 32 29 27 25 21 17 17 20 23 21 18 17 17 17 17 18 19 18 17 16 15 15 16 16 18 18 18 17 18 17 16 15 15 15 14 14 14 15
36 36 36 35 33 30 28 25 22 18 20 24 24 21 18 17 17 17 17 17 17 17 16 15 13 12 13 14 15 17 18 18 19 18 18 17 16 16 16 15 15 15
38 37 36 35 32 30 27 25 22 20 23 26 25 22 20 18 18 18 18 17 17 17 16 15 13 13 13 13 14 15 16 16 17 17 18 17 17 17 17 17 17 16
38 36 35 34 31 29 27 24 21 22 26 27 25 23 21 20 19 19 18 18 18 18 16 15 14 13 13 13 13 14 15 15 15 16 17 17 17 18 18 19 18 17
37 35 33 32 30 29 26 22 22 27 30 28 26 24 23 21 21 20 19 19 18 17 17 16 15 14 14 14 14 14 15 15 16 16 16 17 18 19 20 20 19 18
34 33 31 30 29 27 24 23 27 31 31 29 27 26 25 23 23 22 20 18 18 17 17 17 17 16 16 15 14 14 16 17 17 18 18 18 20 21 22 22 21 19
34 30 29 29 27 25 26 29 32 33 32 31 30 28 27 26 25 24 21 18 17 17 18 19 19 18 18 17 16 16 16 17 18 19 20 21 22 22 23 23 22 21
32 29 30 30 27 26 29 32 33 34 34 33 32 30 28 27 27 24 21 18 18 18 19 20 19 19 19 19 19 18 17 17 18 20 21 22 22 23 24 24 22 21
30 29 29 28 28 31 33 32 32 34 35 35 33 30 28 27 26 23 21 19 19 19 20 20 20 20 20 20 20 19 18 18 19 20 21 21 21 22 23 23 22 20
33 32 30 28 30 33 33 31 32 34 35 34 31 28 27 27 26 23 21 20 20 20 20 21 21 20 20 21 21 20 19 19 19 20 20 20 20 20 21 22 20 19
37 36 32 30 30 31 30 30 32 35 35 33 30 28 27 26 25 23 22 21 21 21 22 22 22 20 20 21 22 21 21 20 20 20 20 19 19 19 20 19 18 17
39 38 32 28 29 29 29 31 34 35 35 32 29 27 27 26 25 23 22 22 23 24 25 25 24 23 22 22 23 23 23 22 22 22 21 20 19 19 19 17 16 16
39 38 32 29 29 30 31 33 35 35 34 31 28 27 26 25 24 24 23 24 25 27 27 27 26 26 24 23 24 24 23 24 25 24 23 22 19 18 19 17 16 15
40 38 34 31 30 31 32 34 35 34 31 28 26 25 25 24 23 23 24 26 27 27 27 27 28 28 26 26 26 25 23 24 26 25 24 22 18 19 20 18 16 15
38 37 34 31 29 30 31 31 32 31 27 24 23 23 23 24 24 23 25 26 27 26 26 27 27 28 28 27 28 26 23 23 27 27 23 19 19 20 21 19 17 15
Wind_Direction
205 204 204 206 210 214 215 214 213 214 215 217 223 225 223 222 222 223 236 247 244 244 251 249 245 246 244 249 259 258 261 269 275 278 268 259 255 254 259 265 264 262
205 204 206 209 212 213 215 214 214 215 216 219 222 217 214 215 214 216 225 229 229 235 239 240 243 241 241 247 252 254 256 260 268 276 270 260 253 254 261 266 269 269
203 204 206 209 211 212 214 215 216 218 218 219 214 206 206 210 212 216 222 224 228 232 233 237 240 240 245 251 255 257 256 255 260 269 273 268 259 258 264 268 271 271
203 204 206 209 212 214 214 214 215 215 215 214 209 203 206 212 215 218 221 224 230 235 235 236 237 236 240 245 250 253 253 255 257 260 270 271 265 264 266 269 271 272
203 203 205 210 214 215 214 213 213 213 212 210 209 208 209 213 216 218 221 225 233 239 239 239 241 241 241 243 247 252 254 258 260 260 265 269 269 268 268 268 268 270
203 203 206 211 213 214 214 213 213 212 211 210 211 211 209 213 218 221 225 230 236 242 240 240 245 246 246 248 250 256 260 262 264 262 264 266 267 267 268 268 268 271
201 202 206 210 212 213 213 213 213 213 213 214 216 214 211 215 220 224 230 236 239 244 245 245 248 250 251 251 252 257 261 264 264 262 262 263 263 266 269 272 273 275
201 204 207 209 211 212 213 213 214 215 215 218 221 219 215 217 223 228 234 239 242 247 250 252 254 253 253 253 252 257 261 264 264 261 261 260 260 265 271 276 279 279
204 206 208 209 211 212 214 214 216 217 218 223 226 221 218 221 226 231 235 241 247 252 255 258 259 258 257 253 251 255 258 260 263 262 260 259 260 265 272 277 279 279
207 208 208 210 212 213 214 216 218 220 224 228 227 221 220 224 229 234 240 246 252 256 259 261 261 261 260 256 250 251 254 257 261 262 261 261 262 265 269 273 276 277
207 208 209 211 213 213 214 216 219 222 228 230 226 222 222 229 236 243 248 250 252 254 256 258 258 260 261 257 250 247 252 256 258 260 262 264 265 265 267 270 274 276
205 207 210 212 213 213 214 216 217 219 221 223 226 226 226 236 245 247 248 249 248 248 249 251 252 254 255 252 246 245 250 256 259 261 263 266 267 266 265 268 272 276
204 208 211 212 213 213 214 215 215 214 214 217 223 227 231 240 243 241 244 245 243 243 245 246 248 250 253 249 243 244 251 256 261 262 263 267 270 268 266 266 269 275
204 209 212 212 213 214 215 216 216 219 221 221 223 228 235 240 238 236 239 239 239 242 242 242 245 251 257 254 247 249 255 258 261 262 263 266 268 268 267 265 267 274
203 208 210 211 212 213 215 216 220 229 231 228 227 233 239 239 234 233 234 236 238 238 235 237 245 254 260 261 258 258 259 260 262 262 262 264 266 267 268 266 266 271
200 205 208 209 210 212 214 215 221 230 234 233 233 237 239 235 231 229 232 237 236 232 232 238 247 256 262 263 263 261 259 259 262 263 263 264 266 268 269 268 267 270
198 203 205 208 211 212 213 215 223 230 235 236 236 237 236 231 228 229 233 238 237 235 240 247 252 257 259 259 259 258 258 260 263 266 266 267 270 271 271 270 269 269
198 201 201 206 210 213 215 217 226 233 236 236 236 236 234 228 227 231 237 243 244 243 249 253 256 257 258 259 260 258 259 263 266 267 267 268 270 271 270 269 268 268
197 198 199 204 207 215 222 223 229 235 235 235 235 235 234 230 229 233 241 248 250 251 256 260 260 260 260 261 261 260 262 265 266 267 265 265 267 269 269 269 267 268
199 195 198 208 213 219 226 228 232 235 235 235 236 235 234 231 230 236 245 251 252 254 260 265 265 264 267 268 265 262 263 266 266 264 260 260 264 269 270 270 268 268
198 193 198 213 220 222 227 231 235 237 236 235 234 234 234 233 235 241 248 252 253 255 261 266 267 267 272 274 270 264 264 267 263 257 254 258 263 268 271 270 268 267
196 197 202 213 220 225 229 234 238 238 236 234 233 234 235 236 239 245 250 252 253 254 257 260 263 264 267 271 271 269 268 266 258 252 252 256 261 267 270 268 263 262
198 200 204 210 220 230 234 237 238 238 236 234 233 233 235 238 242 247 251 253 252 252 252 254 257 260 260 263 269 274 274 265 254 250 250 252 259 269 269 262 256 258
200 199 202 210 221 230 235 236 236 236 235 235 235 236 238 242 246 250 253 253 252 251 251 254 259 262 262 261 265 274 276 264 251 247 248 249 258 269 266 257 254 259
200 200 204 213 223 230 232 233 233 234 235 237 238 240 243 247 252 255 256 255 253 252 252 253 258 263 264 262 261 268 272 261 247 243 244 247 258 267 262 255 254 261
197 200 206 215 224 230 231 232 233 234 236 239 243 245 246 248 252 255 257 255 252 251 252 253 257 262 263 263 263 266 266 254 243 240 241 248 260 263 258 255 257 264
Height
804 806 807 808 810 811 812 814 814 815 816 817 818 819 819 820 821 822 822 822 822 823 823 823 823 823 823 823 823 824 824 823 823 823 823 823 823 823 823 823 823 823
803 804 806 807 809 810 811 812 813 814 815 816 817 818 819 820 820 821 821 821 821 822 822 822 822 822 822 822 822 823 823 823 822 822 822 822 822 822 822 822 822 822
801 803 804 806 807 809 810 811 812 813 814 815 816 817 818 818 819 819 819 819 820 820 820 821 821 820 821 821 821 821 821 822 822 821 821 821 821 821 820 820 820 820
799 801 803 805 806 808 809 809 810 811 813 814 814 815 816 817 818 818 818 818 818 819 819 819 819 819 819 819 820 820 820 820 820 820 820 820 819 819 819 819 819 819
797 799 802 804 805 807 808 808 809 810 811 812 813 814 814 815 816 816 816 816 816 817 817 817 817 817 818 818 818 819 819 818 818 819 818 818 818 818 817 818 817 817
795 798 800 802 804 805 807 807 808 809 810 811 812 813 813 813 814 814 814 814 814 815 815 816 816 816 816 817 817 817 817 817 817 817 817 816 816 816 816 816 816 815
793 796 798 800 802 804 805 806 807 809 810 811 811 812 812 811 812 812 812 812 813 813 814 814 814 815 815 815 815 815 815 815 815 815 815 815 815 814 814 814 814 813
791 794 796 798 800 802 803 805 806 808 809 810 810 810 810 810 810 810 810 810 811 812 813 813 813 813 814 814 814 813 813 813 813 813 813 813 813 812 812 812 812 811
789 792 794 797 798 800 802 803 805 806 807 808 808 809 809 808 808 808 809 809 810 811 811 811 812 812 812 812 812 812 812 811 811 811 811 811 810 810 810 810 810 809
788 790 793 795 796 798 800 802 803 805 806 807 807 807 806 807 807 807 807 808 808 809 809 809 810 809 810 810 810 810 810 810 810 809 809 809 809 808 808 808 808 807
786 788 791 792 794 796 798 800 802 804 805 807 806 805 805 805 806 806 806 806 806 806 807 807 807 807 807 807 808 808 808 808 808 808 808 808 807 807 807 807 806 806
783 786 787 789 791 794 796 798 800 802 803 804 804 804 804 804 804 804 804 803 804 804 805 805 805 805 805 805 805 806 806 806 806 806 806 806 806 806 806 805 805 804
779 782 784 786 789 791 794 796 798 799 799 799 800 802 802 803 802 802 802 802 802 802 803 803 803 803 803 803 803 803 804 804 804 804 804 804 804 804 804 804 803 803
775 778 781 783 786 789 792 794 796 798 797 796 798 799 800 801 800 800 800 800 801 801 801 801 801 801 801 801 801 801 801 802 802 802 802 802 802 802 802 802 801 801
772 776 778 781 784 787 790 793 796 797 795 794 796 797 798 799 798 798 798 799 799 799 799 799 800 800 800 800 799 799 799 799 800 800 800 800 800 800 800 799 799 798
769 773 776 779 782 785 788 791 793 793 792 792 794 795 796 796 796 796 797 798 798 798 798 798 798 798 798 798 798 797 797 797 797 798 798 798 797 797 797 796 796 796
768 770 774 778 780 783 786 787 787 787 788 790 791 792 793 793 794 794 795 796 796 796 796 796 796 797 797 797 796 796 796 796 796 796 796 795 795 795 794 794 794 794
767 769 772 775 777 780 781 781 782 783 785 786 787 789 790 790 791 792 793 794 794 794 794 794 794 795 795 795 794 794 794 794 794 794 793 793 792 792 791 791 791 791
767 768 770 772 772 774 775 776 778 780 781 782 784 786 787 788 789 790 791 791 791 791 792 792 792 793 793 793 792 792 792 792 791 791 790 789 789 789 788 788 788 788
769 769 770 770 768 769 771 773 775 776 777 779 781 783 785 786 787 788 788 788 788 788 789 789 790 790 790 790 790 789 789 789 788 787 787 787 787 786 786 785 786 786
766 766 765 764 764 766 768 770 771 773 774 777 779 780 781 782 783 784 784 784 785 786 786 786 786 787 788 788 787 787 787 786 785 784 784 785 784 784 783 783 783 783
762 762 759 759 762 764 765 766 768 770 772 774 776 777 777 778 779 780 780 781 782 782 783 782 782 783 783 784 784 784 784 783 782 782 782 782 781 781 781 780 781 781
759 758 757 758 760 761 762 763 765 767 770 772 773 773 774 775 776 776 777 778 778 778 778 778 779 779 779 780 780 781 780 780 780 780 779 779 778 778 778 778 778 778
756 755 755 756 757 758 759 761 763 766 768 769 770 770 771 772 772 773 774 774 774 775 775 776 776 776 777 777 776 777 777 777 777 776 776 776 776 776 776 776 776 776
751 751 752 753 755 755 757 759 761 764 766 767 768 768 768 769 770 770 771 771 771 772 773 773 773 773 774 773 772 773 773 773 773 773 773 773 773 773 773 773 774 774
747 748 750 751 752 753 755 758 760 761 763 764 765 765 766 767 767 768 768 769 769 769 770 770 770 770 770 770 769 770 769 770 770 770 770 771 771 770 770 770 771 771